START_TIME,STEP,MOV.,M29,t_acc.,H22,t_acc.,H26,t_acc.,H30,t_acc.
1979-08-06 06:00:30.440 ,1,1,0.,24.0,0.,24.0,0.,24.0,0.,24.0
1979-08-06 06:00:54.440 ,2,1,0.,24.0,0.,24.0,0.,24.0,0.,24.0
1979-08-06 06:01:18.440 ,6,1,0.,24.0,0.,24.0,0.,24.0,0.,24.0
1979-08-06 06:01:42.440 ,5,1,1.,24.0,0.,24.0,0.,24.0,0.,24.0
1979-08-06 06:02:06.440 ,1,1,1.,24.0,0.,24.0,0.,24.0,0.,24.0
1979-08-06 06:02:30.440 ,2,1,0.,24.0,0.,24.0,0.,24.0,0.,24.0
1979-08-06 06:02:54.440 ,6,1,0.,24.0,0.,24.0,0.,24.0,0.,24.0
1979-08-06 06:03:18.440 ,5,1,0.,24.0,0.,24.0,0.,24.0,0.,24.0
1979-08-06 06:03:42.440 ,1,1,0.,24.0,0.,24.0,0.,24.0,0.,24.0
1979-08-06 06:04:06.440 ,2,1,0.,24.0,0.,24.0,0.,24.0,0.,24.0
1979-08-06 06:04:30.440 ,6,1,0.,24.0,0.,24.0,0.,24.0,0.,24.0
1979-08-06 06:04:54.440 ,5,1,0.,24.0,0.,24.0,0.,24.0,0.,24.0
1979-08-06 06:05:18.440 ,1,1,0.,24.0,0.,24.0,0.,24.0,0.,24.0
1979-08-06 06:05:42.440 ,0,0,0.,24.0,0.,24.0,0.,24.0,0.,24.0
1979-08-06 06:06:06.440 ,0,0,0.,24.0,0.,24.0,0.,24.0,0.,24.0
1979-08-06 06:06:30.440 ,5,1,0.,24.0,0.,24.0,0.,24.0,0.,24.0
1979-08-06 06:06:54.440 ,5,0,0.,24.0,0.,24.0,0.,24.0,0.,24.0
1979-08-06 06:07:18.440 ,4,1,0.,24.0,0.,24.0,0.,24.0,0.,24.0
1979-08-06 06:07:42.440 ,4,0,0.,24.0,0.,24.0,0.,24.0,0.,24.0
1979-08-06 06:08:06.440 ,3,1,0.,24.0,0.,24.0,0.,24.0,0.,24.0
1979-08-06 06:08:30.440 ,3,0,0.,24.0,0.,24.0,0.,24.0,0.,24.0
1979-08-06 06:08:54.440 ,2,1,0.,24.0,0.,24.0,0.,24.0,0.,24.0
1979-08-06 06:09:18.440 ,2,0,0.,24.0,0.,24.0,0.,24.0,0.,24.0
1979-08-06 06:09:42.440 ,1,1,0.,24.0,0.,24.0,0.,24.0,0.,24.0
1979-08-06 06:10:06.440 ,1,0,0.,24.0,0.,24.0,0.,24.0,0.,24.0
1979-08-06 06:10:30.440 ,0,1,0.,24.0,0.,24.0,0.,24.0,0.,24.0
1979-08-06 06:10:54.440 ,0,0,0.,24.0,0.,24.0,0.,24.0,0.,24.0
1979-08-06 06:11:18.440 ,0,1,0.,24.0,0.,24.0,0.,24.0,0.,24.0
1979-08-06 06:11:42.440 ,0,0,0.,24.0,0.,24.0,0.,24.0,0.,24.0
1979-08-06 06:12:06.440 ,1,1,0.,24.0,0.,24.0,0.,24.0,0.,24.0
1979-08-06 06:12:30.440 ,1,0,0.,24.0,0.,24.0,0.,24.0,0.,24.0
1979-08-06 06:12:54.440 ,2,1,0.,24.0,0.,24.0,0.,24.0,0.,24.0
1979-08-06 06:13:18.440 ,2,0,0.,24.0,0.,24.0,0.,24.0,0.,24.0
1979-08-06 06:13:42.440 ,3,1,0.,24.0,0.,24.0,0.,24.0,0.,24.0
1979-08-06 06:14:06.440 ,3,0,0.,24.0,0.,24.0,0.,24.0,0.,24.0
1979-08-06 06:14:30.440 ,4,1,0.,24.0,0.,24.0,0.,24.0,0.,24.0
1979-08-06 06:14:54.440 ,4,0,0.,24.0,0.,24.0,0.,24.0,0.,24.0
1979-08-06 06:15:18.440 ,5,1,0.,24.0,0.,24.0,0.,24.0,0.,24.0
1979-08-06 06:15:42.440 ,5,0,0.,24.0,0.,24.0,0.,24.0,0.,24.0
1979-08-06 06:16:06.440 ,6,1,0.,24.0,0.,24.0,0.,24.0,0.,24.0
1979-08-06 06:16:30.440 ,6,0,0.,24.0,0.,24.0,0.,24.0,0.,24.0
1979-08-06 06:16:54.440 ,7,1,0.,24.0,0.,24.0,0.,24.0,0.,24.0
1979-08-06 06:17:18.440 ,7,0,0.,24.0,0.,24.0,0.,24.0,0.,24.0
1979-08-06 06:17:42.440 ,7,1,0.,24.0,0.,24.0,0.,24.0,0.,24.0
1979-08-06 06:18:06.440 ,7,0,1.,24.0,0.,24.0,0.,24.0,0.,24.0
1979-08-06 06:18:30.440 ,6,1,0.,24.0,0.,24.0,0.,24.0,0.,24.0
1979-08-06 06:18:54.440 ,6,0,0.,24.0,0.,24.0,0.,24.0,0.,24.0
1979-08-06 06:19:18.440 ,5,1,0.,24.0,0.,24.0,0.,24.0,0.,24.0
1979-08-06 06:19:42.440 ,5,0,0.,24.0,0.,24.0,0.,24.0,0.,24.0
1979-08-06 06:20:06.440 ,4,1,0.,24.0,0.,24.0,0.,24.0,0.,24.0
1979-08-06 06:20:30.440 ,4,0,0.,24.0,0.,24.0,0.,24.0,0.,24.0
1979-08-06 06:20:54.440 ,3,1,0.,24.0,0.,24.0,0.,24.0,0.,24.0
1979-08-06 06:21:18.440 ,3,0,0.,24.0,0.,24.0,0.,24.0,0.,24.0
1979-08-06 06:21:42.440 ,2,1,0.,24.0,0.,24.0,0.,24.0,0.,24.0
1979-08-06 06:22:06.440 ,2,0,0.,24.0,0.,24.0,0.,24.0,0.,24.0
1979-08-06 06:22:30.440 ,1,1,0.,24.0,0.,24.0,0.,24.0,0.,24.0
1979-08-06 06:22:54.440 ,1,0,0.,24.0,0.,24.0,0.,24.0,0.,24.0
1979-08-06 06:23:18.440 ,0,1,0.,24.0,0.,24.0,0.,24.0,0.,24.0
1979-08-06 06:23:42.440 ,0,0,0.,24.0,0.,24.0,0.,24.0,0.,24.0
1979-08-06 06:24:06.440 ,0,1,0.,24.0,0.,24.0,0.,24.0,0.,24.0
1979-08-06 06:24:30.440 ,0,0,0.,24.0,0.,24.0,0.,24.0,0.,24.0
1979-08-06 06:24:54.440 ,1,1,0.,24.0,0.,24.0,0.,24.0,0.,24.0
1979-08-06 06:25:18.440 ,1,0,0.,24.0,0.,24.0,0.,24.0,0.,24.0
1979-08-06 06:25:42.440 ,2,1,0.,24.0,0.,24.0,0.,24.0,0.,24.0
1979-08-06 06:26:06.440 ,2,0,1.,24.0,0.,24.0,0.,24.0,0.,24.0
1979-08-06 06:26:30.440 ,3,1,0.,24.0,0.,24.0,0.,24.0,0.,24.0
1979-08-06 06:26:54.440 ,3,0,0.,24.0,0.,24.0,0.,24.0,0.,24.0
1979-08-06 06:27:18.440 ,4,1,0.,24.0,0.,24.0,0.,24.0,0.,24.0
1979-08-06 06:27:42.440 ,4,0,0.,24.0,0.,24.0,0.,24.0,0.,24.0
1979-08-06 06:28:06.440 ,5,1,0.,24.0,0.,24.0,0.,24.0,0.,24.0
1979-08-06 06:28:30.440 ,5,0,1.,24.0,0.,24.0,0.,24.0,0.,24.0
1979-08-06 06:28:54.440 ,6,1,0.,24.0,0.,24.0,0.,24.0,0.,24.0
1979-08-06 06:29:18.440 ,6,0,0.,24.0,0.,24.0,0.,24.0,0.,24.0
1979-08-06 06:29:42.440 ,7,1,0.,24.0,0.,24.0,0.,24.0,0.,24.0
1979-08-06 06:30:06.440 ,7,0,0.,24.0,0.,24.0,0.,24.0,0.,24.0
1979-08-06 06:30:30.440 ,7,1,0.,24.0,0.,24.0,0.,24.0,0.,24.0
1979-08-06 06:30:54.440 ,7,0,0.,24.0,0.,24.0,0.,24.0,0.,24.0
1979-08-06 06:31:18.440 ,6,1,0.,24.0,0.,24.0,0.,24.0,0.,24.0
1979-08-06 06:31:42.440 ,6,0,0.,24.0,0.,24.0,0.,24.0,0.,24.0
1979-08-06 06:32:06.440 ,5,1,0.,24.0,0.,24.0,0.,24.0,0.,24.0
1979-08-06 06:32:30.440 ,5,0,0.,24.0,0.,24.0,0.,24.0,0.,24.0
1979-08-06 06:32:54.440 ,4,1,0.,24.0,0.,24.0,0.,24.0,0.,24.0
1979-08-06 06:33:18.440 ,4,0,0.,24.0,0.,24.0,0.,24.0,0.,24.0
1979-08-06 06:33:42.440 ,3,1,0.,24.0,0.,24.0,0.,24.0,0.,24.0
1979-08-06 06:34:06.440 ,3,0,0.,24.0,0.,24.0,0.,24.0,0.,24.0
1979-08-06 06:34:30.440 ,2,1,0.,24.0,0.,24.0,0.,24.0,0.,24.0
1979-08-06 06:34:54.440 ,2,0,0.,24.0,0.,24.0,0.,24.0,0.,24.0
1979-08-06 06:35:18.440 ,1,1,0.,24.0,0.,24.0,0.,24.0,0.,24.0
1979-08-06 06:35:42.440 ,1,0,1.,24.0,0.,24.0,0.,24.0,0.,24.0
1979-08-06 06:36:06.440 ,0,1,0.,24.0,0.,24.0,0.,24.0,0.,24.0
1979-08-06 06:36:30.440 ,0,0,0.,24.0,0.,24.0,0.,24.0,0.,24.0
1979-08-06 06:36:54.440 ,0,1,0.,24.0,0.,24.0,0.,24.0,0.,24.0
1979-08-06 06:37:18.440 ,0,0,0.,24.0,0.,24.0,0.,24.0,0.,24.0
1979-08-06 06:37:42.440 ,1,1,0.,24.0,0.,24.0,0.,24.0,0.,24.0
1979-08-06 06:38:06.440 ,1,0,0.,24.0,0.,24.0,0.,24.0,0.,24.0
1979-08-06 06:38:30.440 ,2,1,0.,24.0,0.,24.0,0.,24.0,0.,24.0
1979-08-06 06:38:54.440 ,2,0,0.,24.0,0.,24.0,0.,24.0,0.,24.0
1979-08-06 06:39:18.440 ,3,1,0.,24.0,0.,24.0,0.,24.0,0.,24.0
1979-08-06 06:39:42.440 ,3,0,0.,24.0,0.,24.0,0.,24.0,0.,24.0
1979-08-06 06:40:06.440 ,4,1,0.,24.0,0.,24.0,0.,24.0,0.,24.0
1979-08-06 06:40:30.440 ,4,0,0.,24.0,0.,24.0,0.,24.0,0.,24.0
1979-08-06 06:40:54.440 ,5,1,0.,24.0,0.,24.0,0.,24.0,0.,24.0
1979-08-06 06:41:18.440 ,5,0,0.,24.0,0.,24.0,0.,24.0,0.,24.0
1979-08-06 06:41:42.440 ,6,1,0.,24.0,0.,24.0,0.,24.0,0.,24.0
1979-08-06 06:42:06.440 ,6,0,0.,24.0,0.,24.0,0.,24.0,0.,24.0
1979-08-06 06:42:30.440 ,7,0,0.,24.0,0.,24.0,0.,24.0,0.,24.0
1979-08-06 06:42:54.440 ,7,0,0.,24.0,0.,24.0,0.,24.0,0.,24.0
1979-08-06 06:43:18.440 ,5,1,0.,24.0,0.,24.0,0.,24.0,0.,24.0
1979-08-06 06:43:42.440 ,1,1,0.,24.0,0.,24.0,0.,24.0,0.,24.0
1979-08-06 06:44:06.440 ,2,1,0.,24.0,0.,24.0,0.,24.0,0.,24.0
1979-08-06 06:44:30.440 ,6,1,0.,24.0,0.,24.0,0.,24.0,0.,24.0
1979-08-06 06:44:54.440 ,5,1,0.,24.0,0.,24.0,0.,24.0,0.,24.0
1979-08-06 06:45:18.440 ,1,1,0.,24.0,0.,24.0,0.,24.0,0.,24.0
1979-08-06 06:45:42.440 ,2,1,0.,24.0,0.,24.0,0.,24.0,0.,24.0
1979-08-06 06:46:06.440 ,6,1,0.,24.0,0.,24.0,0.,24.0,0.,24.0
1979-08-06 06:46:30.440 ,5,1,0.,24.0,0.,24.0,0.,24.0,0.,24.0
1979-08-06 06:46:54.440 ,1,1,0.,24.0,0.,24.0,0.,24.0,0.,24.0
1979-08-06 06:47:18.440 ,2,1,0.,24.0,0.,24.0,0.,24.0,0.,24.0
1979-08-06 06:47:42.440 ,6,1,0.,24.0,0.,24.0,0.,24.0,0.,24.0
1979-08-06 06:48:06.440 ,5,1,0.,24.0,0.,24.0,0.,24.0,0.,24.0
1979-08-06 06:48:30.440 ,1,1,0.,24.0,0.,24.0,0.,24.0,0.,24.0
1979-08-06 06:48:54.440 ,2,1,0.,24.0,0.,24.0,0.,24.0,0.,24.0
1979-08-06 06:49:18.440 ,6,1,0.,24.0,0.,24.0,0.,24.0,0.,24.0
1979-08-06 06:49:42.440 ,5,1,0.,24.0,0.,24.0,0.,24.0,0.,24.0
1979-08-06 06:50:06.440 ,1,1,0.,24.0,0.,24.0,0.,24.0,0.,24.0
1979-08-06 06:50:30.440 ,2,1,0.,24.0,0.,24.0,0.,24.0,0.,24.0
1979-08-06 06:50:54.440 ,6,1,0.,24.0,0.,24.0,0.,24.0,0.,24.0
1979-08-06 06:51:18.440 ,5,1,0.,24.0,0.,24.0,0.,24.0,0.,24.0
1979-08-06 06:51:42.440 ,1,1,0.,24.0,0.,24.0,0.,24.0,0.,24.0
1979-08-06 06:52:06.440 ,2,1,0.,24.0,0.,24.0,0.,24.0,0.,24.0
1979-08-06 06:52:30.440 ,6,1,0.,24.0,0.,24.0,0.,24.0,0.,24.0
1979-08-06 06:52:54.440 ,5,1,0.,24.0,0.,24.0,0.,24.0,0.,24.0
1979-08-06 06:53:18.440 ,1,1,0.,24.0,0.,24.0,0.,24.0,0.,24.0
1979-08-06 06:53:42.440 ,0,0,0.,24.0,0.,24.0,0.,24.0,0.,24.0
1979-08-06 06:54:06.440 ,0,0,0.,24.0,0.,24.0,0.,24.0,0.,24.0
1979-08-06 06:54:30.440 ,5,1,0.,24.0,0.,24.0,0.,24.0,0.,24.0
1979-08-06 06:54:54.440 ,5,0,0.,24.0,0.,24.0,0.,24.0,0.,24.0
1979-08-06 06:55:18.440 ,4,1,0.,24.0,0.,24.0,0.,24.0,0.,24.0
1979-08-06 06:55:42.440 ,4,0,0.,24.0,0.,24.0,0.,24.0,0.,24.0
1979-08-06 06:56:06.440 ,3,1,0.,24.0,0.,24.0,0.,24.0,0.,24.0
1979-08-06 06:56:30.440 ,3,0,0.,24.0,0.,24.0,0.,24.0,0.,24.0
1979-08-06 06:56:54.440 ,2,1,0.,24.0,0.,24.0,0.,24.0,0.,24.0
1979-08-06 06:57:18.440 ,2,0,0.,24.0,0.,24.0,0.,24.0,0.,24.0
1979-08-06 06:57:42.440 ,1,1,0.,24.0,0.,24.0,0.,24.0,0.,24.0
1979-08-06 06:58:06.440 ,1,0,0.,24.0,0.,24.0,0.,24.0,0.,24.0
1979-08-06 06:58:30.440 ,0,1,0.,24.0,0.,24.0,0.,24.0,0.,24.0
1979-08-06 06:58:54.440 ,0,0,0.,24.0,0.,24.0,0.,24.0,0.,24.0
1979-08-06 06:59:18.440 ,0,1,0.,24.0,0.,24.0,0.,24.0,0.,24.0
1979-08-06 06:59:42.440 ,0,0,0.,24.0,0.,24.0,0.,24.0,0.,24.0
1979-08-06 07:00:06.440 ,1,1,0.,24.0,0.,24.0,0.,24.0,0.,24.0
1979-08-06 07:00:30.440 ,1,0,0.,24.0,0.,24.0,0.,24.0,0.,24.0
1979-08-06 07:00:54.440 ,2,1,0.,24.0,0.,24.0,0.,24.0,0.,24.0
1979-08-06 07:01:18.440 ,2,0,0.,24.0,0.,24.0,0.,24.0,0.,24.0
1979-08-06 07:01:42.440 ,3,1,0.,24.0,0.,24.0,0.,24.0,0.,24.0
1979-08-06 07:02:06.440 ,3,0,0.,24.0,0.,24.0,0.,24.0,0.,24.0
1979-08-06 07:02:30.440 ,4,1,0.,24.0,0.,24.0,0.,24.0,0.,24.0
1979-08-06 07:02:54.440 ,4,0,0.,24.0,0.,24.0,0.,24.0,0.,24.0
1979-08-06 07:03:18.440 ,5,1,0.,24.0,0.,24.0,0.,24.0,0.,24.0
1979-08-06 07:03:42.440 ,5,0,0.,24.0,0.,24.0,0.,24.0,0.,24.0
1979-08-06 07:04:06.440 ,6,1,0.,24.0,0.,24.0,0.,24.0,0.,24.0
1979-08-06 07:04:30.440 ,6,0,0.,24.0,0.,24.0,0.,24.0,0.,24.0
1979-08-06 07:04:54.440 ,7,1,0.,24.0,0.,24.0,0.,24.0,0.,24.0
1979-08-06 07:05:18.440 ,7,0,0.,24.0,0.,24.0,0.,24.0,0.,24.0
1979-08-06 07:05:42.440 ,7,1,0.,24.0,0.,24.0,0.,24.0,0.,24.0
1979-08-06 07:06:06.440 ,7,0,1.,24.0,0.,24.0,0.,24.0,0.,24.0
1979-08-06 07:06:30.440 ,6,1,0.,24.0,0.,24.0,0.,24.0,0.,24.0
1979-08-06 07:06:54.440 ,6,0,0.,24.0,0.,24.0,0.,24.0,0.,24.0
1979-08-06 07:07:18.440 ,5,1,0.,24.0,0.,24.0,0.,24.0,0.,24.0
1979-08-06 07:07:42.440 ,5,0,0.,24.0,0.,24.0,0.,24.0,0.,24.0
1979-08-06 07:08:06.440 ,4,1,0.,24.0,0.,24.0,0.,24.0,0.,24.0
1979-08-06 07:08:30.440 ,4,0,0.,24.0,0.,24.0,0.,24.0,0.,24.0
1979-08-06 07:08:54.440 ,3,1,0.,24.0,0.,24.0,0.,24.0,0.,24.0
1979-08-06 07:09:18.440 ,3,0,0.,24.0,0.,24.0,0.,24.0,0.,24.0
1979-08-06 07:09:42.440 ,2,1,0.,24.0,0.,24.0,0.,24.0,0.,24.0
1979-08-06 07:10:06.440 ,2,0,0.,24.0,0.,24.0,0.,24.0,0.,24.0
1979-08-06 07:10:30.440 ,1,1,0.,24.0,0.,24.0,0.,24.0,0.,24.0
1979-08-06 07:10:54.440 ,1,0,0.,24.0,0.,24.0,0.,24.0,0.,24.0
1979-08-06 07:11:18.440 ,0,1,0.,24.0,0.,24.0,0.,24.0,0.,24.0
1979-08-06 07:11:42.440 ,0,0,0.,24.0,0.,24.0,0.,24.0,0.,24.0
1979-08-06 07:12:06.440 ,0,1,0.,24.0,0.,24.0,0.,24.0,0.,24.0
1979-08-06 07:12:30.440 ,0,0,0.,24.0,0.,24.0,0.,24.0,0.,24.0
1979-08-06 07:12:54.440 ,1,1,0.,24.0,0.,24.0,0.,24.0,0.,24.0
1979-08-06 07:13:18.440 ,1,0,0.,24.0,0.,24.0,0.,24.0,0.,24.0
1979-08-06 07:13:42.440 ,2,1,0.,24.0,0.,24.0,0.,24.0,0.,24.0
1979-08-06 07:14:06.440 ,2,0,0.,24.0,0.,24.0,0.,24.0,0.,24.0
1979-08-06 07:14:30.440 ,3,1,0.,24.0,0.,24.0,0.,24.0,0.,24.0
1979-08-06 07:14:54.440 ,3,0,0.,24.0,0.,24.0,0.,24.0,0.,24.0
1979-08-06 07:15:18.440 ,4,1,0.,24.0,0.,24.0,0.,24.0,0.,24.0
1979-08-06 07:15:42.440 ,4,0,0.,24.0,0.,24.0,0.,24.0,0.,24.0
1979-08-06 07:16:06.440 ,5,1,0.,24.0,0.,24.0,0.,24.0,0.,24.0
1979-08-06 07:16:30.440 ,5,0,0.,24.0,0.,24.0,0.,24.0,0.,24.0
1979-08-06 07:16:54.430 ,6,1,0.,24.0,0.,24.0,0.,24.0,0.,24.0
1979-08-06 07:17:18.440 ,6,0,0.,24.0,0.,24.0,0.,24.0,0.,24.0
1979-08-06 07:17:42.440 ,7,1,0.,24.0,0.,24.0,0.,24.0,0.,24.0
1979-08-06 07:18:06.440 ,7,0,0.,24.0,0.,24.0,0.,24.0,0.,24.0
1979-08-06 07:18:30.440 ,7,1,0.,24.0,0.,24.0,0.,24.0,0.,24.0
1979-08-06 07:18:54.440 ,7,0,0.,24.0,0.,24.0,0.,24.0,0.,24.0
1979-08-06 07:19:18.440 ,6,1,0.,24.0,0.,24.0,0.,24.0,0.,24.0
1979-08-06 07:19:42.440 ,6,0,1.,24.0,0.,24.0,0.,24.0,0.,24.0
1979-08-06 07:20:06.440 ,5,1,0.,24.0,0.,24.0,0.,24.0,0.,24.0
1979-08-06 07:20:30.440 ,5,0,0.,24.0,0.,24.0,0.,24.0,0.,24.0
1979-08-06 07:20:54.440 ,4,1,0.,24.0,0.,24.0,0.,24.0,0.,24.0
1979-08-06 07:21:18.440 ,4,0,0.,24.0,0.,24.0,0.,24.0,0.,24.0
1979-08-06 07:21:42.440 ,3,1,0.,24.0,0.,24.0,0.,24.0,0.,24.0
1979-08-06 07:22:06.440 ,3,0,0.,24.0,0.,24.0,0.,24.0,0.,24.0
1979-08-06 07:22:30.440 ,2,1,0.,24.0,0.,24.0,0.,24.0,0.,24.0
1979-08-06 07:22:54.440 ,2,0,0.,24.0,0.,24.0,0.,24.0,0.,24.0
1979-08-06 07:23:18.440 ,1,1,0.,24.0,0.,24.0,0.,24.0,0.,24.0
1979-08-06 07:23:42.440 ,1,0,0.,24.0,0.,24.0,0.,24.0,0.,24.0
1979-08-06 07:24:06.440 ,0,1,0.,24.0,0.,24.0,0.,24.0,0.,24.0
1979-08-06 07:24:30.440 ,0,0,0.,24.0,0.,24.0,0.,24.0,0.,24.0
1979-08-06 07:24:54.440 ,0,1,0.,24.0,0.,24.0,0.,24.0,0.,24.0
1979-08-06 07:25:18.440 ,0,0,0.,24.0,0.,24.0,0.,24.0,0.,24.0
1979-08-06 07:25:42.440 ,1,1,0.,24.0,0.,24.0,0.,24.0,0.,24.0
1979-08-06 07:26:06.440 ,1,0,0.,24.0,0.,24.0,0.,24.0,0.,24.0
1979-08-06 07:26:30.440 ,2,1,0.,24.0,0.,24.0,0.,24.0,0.,24.0
1979-08-06 07:26:54.440 ,2,0,0.,24.0,0.,24.0,0.,24.0,0.,24.0
1979-08-06 07:27:18.440 ,3,1,0.,24.0,0.,24.0,0.,24.0,0.,24.0
1979-08-06 07:27:42.440 ,3,0,0.,24.0,0.,24.0,0.,24.0,0.,24.0
1979-08-06 07:28:06.440 ,4,1,0.,24.0,0.,24.0,0.,24.0,0.,24.0
1979-08-06 07:28:30.440 ,4,0,0.,24.0,0.,24.0,0.,24.0,0.,24.0
1979-08-06 07:28:54.440 ,5,1,1.,24.0,0.,24.0,0.,24.0,1.,24.0
1979-08-06 07:29:18.440 ,5,0,0.,24.0,0.,24.0,0.,24.0,0.,24.0
1979-08-06 07:29:42.440 ,6,1,0.,24.0,0.,24.0,0.,24.0,0.,24.0
1979-08-06 07:30:06.440 ,6,0,0.,24.0,0.,24.0,0.,24.0,0.,24.0
1979-08-06 07:30:30.440 ,7,0,0.,24.0,0.,24.0,0.,24.0,0.,24.0
1979-08-06 07:30:54.440 ,7,0,0.,24.0,0.,24.0,0.,24.0,0.,24.0
1979-08-06 07:31:18.440 ,5,1,0.,24.0,0.,24.0,0.,24.0,0.,24.0
1979-08-06 07:31:42.440 ,1,1,0.,24.0,0.,24.0,0.,24.0,0.,24.0
1979-08-06 07:32:06.440 ,2,1,0.,24.0,0.,24.0,0.,24.0,0.,24.0
1979-08-06 07:32:30.440 ,6,1,0.,24.0,0.,24.0,0.,24.0,0.,24.0
1979-08-06 07:32:54.440 ,5,1,0.,24.0,0.,24.0,0.,24.0,0.,24.0
1979-08-06 07:33:18.440 ,1,1,1.,24.0,0.,24.0,0.,24.0,0.,24.0
1979-08-06 07:33:42.440 ,4,1,,0,,0,,0,,0
1979-08-06 07:34:06.440 ,6,1,0.,24.0,0.,24.0,0.,24.0,0.,24.0
1979-08-06 07:34:30.430 ,5,1,0.,24.0,0.,24.0,0.,24.0,0.,24.0
1979-08-06 07:34:54.430 ,1,1,0.,24.0,0.,24.0,0.,24.0,0.,24.0
1979-08-06 07:35:18.430 ,2,1,0.,24.0,0.,24.0,0.,24.0,0.,24.0
1979-08-06 07:35:42.430 ,6,1,0.,24.0,0.,24.0,0.,24.0,0.,24.0
1979-08-06 07:36:06.430 ,5,1,0.,24.0,0.,24.0,0.,24.0,0.,24.0
1979-08-06 07:36:30.430 ,1,1,0.,24.0,0.,24.0,0.,24.0,0.,24.0
1979-08-06 07:36:54.430 ,2,1,0.,24.0,0.,24.0,0.,24.0,0.,24.0
1979-08-06 07:37:18.430 ,6,1,0.,24.0,0.,24.0,0.,24.0,0.,24.0
1979-08-06 07:37:42.430 ,5,1,0.,24.0,0.,24.0,0.,24.0,0.,24.0
1979-08-06 07:38:06.430 ,1,1,0.,24.0,0.,24.0,0.,24.0,0.,24.0
1979-08-06 07:38:30.430 ,2,1,0.,24.0,0.,24.0,0.,24.0,0.,24.0
1979-08-06 07:38:54.430 ,6,1,0.,24.0,0.,24.0,0.,24.0,0.,24.0
1979-08-06 07:39:18.430 ,5,1,0.,24.0,0.,24.0,0.,24.0,0.,24.0
1979-08-06 07:39:42.430 ,1,1,0.,24.0,0.,24.0,0.,24.0,0.,24.0
1979-08-06 07:40:06.430 ,2,1,0.,24.0,0.,24.0,0.,24.0,0.,24.0
1979-08-06 07:40:30.430 ,6,1,0.,24.0,0.,24.0,0.,24.0,0.,24.0
1979-08-06 07:40:54.430 ,5,1,0.,24.0,0.,24.0,0.,24.0,0.,24.0
1979-08-06 07:41:18.430 ,1,1,0.,24.0,0.,24.0,0.,24.0,0.,24.0
1979-08-06 07:41:42.430 ,0,0,0.,24.0,0.,24.0,0.,24.0,0.,24.0
1979-08-06 07:42:06.430 ,0,0,0.,24.0,0.,24.0,0.,24.0,0.,24.0
1979-08-06 07:42:30.430 ,5,1,0.,24.0,0.,24.0,0.,24.0,0.,24.0
1979-08-06 07:42:54.430 ,5,0,0.,24.0,0.,24.0,0.,24.0,0.,24.0
1979-08-06 07:43:18.430 ,4,1,0.,24.0,0.,24.0,0.,24.0,0.,24.0
1979-08-06 07:43:42.430 ,4,0,0.,24.0,0.,24.0,0.,24.0,0.,24.0
1979-08-06 07:44:06.430 ,3,1,0.,24.0,0.,24.0,0.,24.0,0.,24.0
1979-08-06 07:44:30.430 ,3,0,0.,24.0,0.,24.0,0.,24.0,0.,24.0
1979-08-06 07:44:54.430 ,2,1,0.,24.0,0.,24.0,0.,24.0,0.,24.0
1979-08-06 07:45:18.430 ,2,0,0.,24.0,0.,24.0,0.,24.0,0.,24.0
1979-08-06 07:45:42.430 ,1,1,0.,24.0,0.,24.0,0.,24.0,0.,24.0
1979-08-06 07:46:06.430 ,1,0,0.,24.0,0.,24.0,0.,24.0,0.,24.0
1979-08-06 07:46:30.430 ,0,1,0.,24.0,0.,24.0,0.,24.0,0.,24.0
1979-08-06 07:46:54.430 ,0,0,0.,24.0,0.,24.0,0.,24.0,0.,24.0
1979-08-06 07:47:18.430 ,0,1,0.,24.0,0.,24.0,0.,24.0,0.,24.0
1979-08-06 07:47:42.430 ,0,0,0.,24.0,0.,24.0,0.,24.0,0.,24.0
1979-08-06 07:48:06.430 ,1,1,0.,24.0,0.,24.0,0.,24.0,0.,24.0
1979-08-06 07:48:30.430 ,1,0,0.,24.0,0.,24.0,0.,24.0,0.,24.0
1979-08-06 07:48:54.430 ,2,1,0.,24.0,0.,24.0,0.,24.0,0.,24.0
1979-08-06 07:49:18.430 ,2,0,0.,24.0,0.,24.0,0.,24.0,0.,24.0
1979-08-06 07:49:42.430 ,3,1,0.,24.0,0.,24.0,0.,24.0,0.,24.0
1979-08-06 07:50:06.430 ,3,0,0.,24.0,0.,24.0,0.,24.0,0.,24.0
1979-08-06 07:50:30.430 ,4,1,0.,24.0,0.,24.0,0.,24.0,0.,24.0
1979-08-06 07:50:54.430 ,4,0,0.,24.0,0.,24.0,0.,24.0,0.,24.0
1979-08-06 07:51:18.430 ,5,1,0.,24.0,0.,24.0,0.,24.0,0.,24.0
1979-08-06 07:51:42.430 ,5,0,0.,24.0,0.,24.0,0.,24.0,0.,24.0
1979-08-06 07:52:06.430 ,6,1,0.,24.0,0.,24.0,0.,24.0,0.,24.0
1979-08-06 07:52:30.430 ,6,0,0.,24.0,0.,24.0,0.,24.0,0.,24.0
1979-08-06 07:52:54.430 ,7,1,0.,24.0,0.,24.0,0.,24.0,0.,24.0
1979-08-06 07:53:18.430 ,7,0,0.,24.0,0.,24.0,0.,24.0,0.,24.0
1979-08-06 07:53:42.430 ,7,1,0.,24.0,0.,24.0,0.,24.0,0.,24.0
1979-08-06 07:54:06.430 ,7,0,0.,24.0,0.,24.0,0.,24.0,0.,24.0
1979-08-06 07:54:30.430 ,6,1,0.,24.0,0.,24.0,0.,24.0,0.,24.0
1979-08-06 07:54:54.430 ,6,0,0.,24.0,0.,24.0,0.,24.0,0.,24.0
1979-08-06 07:55:18.430 ,5,1,0.,24.0,0.,24.0,0.,24.0,0.,24.0
1979-08-06 07:55:42.430 ,5,0,0.,24.0,0.,24.0,0.,24.0,0.,24.0
1979-08-06 07:56:06.430 ,4,1,0.,24.0,0.,24.0,0.,24.0,0.,24.0
1979-08-06 07:56:30.430 ,4,0,0.,24.0,0.,24.0,0.,24.0,0.,24.0
1979-08-06 07:56:54.430 ,3,1,0.,24.0,0.,24.0,0.,24.0,0.,24.0
1979-08-06 07:57:18.430 ,3,0,0.,24.0,0.,24.0,0.,24.0,0.,24.0
1979-08-06 07:57:42.430 ,2,1,0.,24.0,0.,24.0,0.,24.0,0.,24.0
1979-08-06 07:58:06.430 ,2,0,0.,24.0,0.,24.0,0.,24.0,0.,24.0
1979-08-06 07:58:30.430 ,1,1,0.,24.0,0.,24.0,0.,24.0,0.,24.0
1979-08-06 07:58:54.430 ,1,0,0.,24.0,0.,24.0,0.,24.0,0.,24.0
1979-08-06 07:59:18.430 ,0,1,0.,24.0,0.,24.0,0.,24.0,0.,24.0
1979-08-06 07:59:42.430 ,0,0,0.,24.0,0.,24.0,0.,24.0,0.,24.0
1979-08-06 08:00:06.430 ,0,1,0.,24.0,0.,24.0,0.,24.0,0.,24.0
1979-08-06 08:00:30.430 ,0,0,0.,24.0,0.,24.0,0.,24.0,0.,24.0
1979-08-06 08:00:54.430 ,1,1,0.,24.0,0.,24.0,0.,24.0,0.,24.0
1979-08-06 08:01:18.430 ,1,0,0.,24.0,0.,24.0,0.,24.0,0.,24.0
1979-08-06 08:01:42.430 ,2,1,0.,24.0,0.,24.0,0.,24.0,0.,24.0
1979-08-06 08:02:06.430 ,2,0,0.,24.0,0.,24.0,0.,24.0,0.,24.0
1979-08-06 08:02:30.430 ,3,1,0.,24.0,0.,24.0,0.,24.0,0.,24.0
1979-08-06 08:02:54.430 ,3,0,0.,24.0,0.,24.0,0.,24.0,0.,24.0
1979-08-06 08:03:18.430 ,4,1,0.,24.0,0.,24.0,0.,24.0,0.,24.0
1979-08-06 08:03:42.430 ,4,0,0.,24.0,0.,24.0,0.,24.0,0.,24.0
1979-08-06 08:04:06.430 ,5,1,0.,24.0,0.,24.0,0.,24.0,0.,24.0
1979-08-06 08:04:30.430 ,5,0,0.,24.0,0.,24.0,0.,24.0,0.,24.0
1979-08-06 08:04:54.430 ,6,1,0.,24.0,0.,24.0,0.,24.0,0.,24.0
1979-08-06 08:05:18.430 ,6,0,0.,24.0,0.,24.0,0.,24.0,0.,24.0
1979-08-06 08:05:42.430 ,7,1,0.,24.0,0.,24.0,0.,24.0,0.,24.0
1979-08-06 08:06:06.430 ,7,0,0.,24.0,0.,24.0,0.,24.0,0.,24.0
1979-08-06 08:06:30.430 ,7,1,0.,24.0,0.,24.0,0.,24.0,0.,24.0
1979-08-06 08:06:54.430 ,7,0,0.,24.0,0.,24.0,0.,24.0,0.,24.0
1979-08-06 08:07:18.430 ,6,1,0.,24.0,0.,24.0,0.,24.0,0.,24.0
1979-08-06 08:07:42.430 ,6,0,0.,24.0,0.,24.0,0.,24.0,0.,24.0
1979-08-06 08:08:06.430 ,5,1,0.,24.0,0.,24.0,0.,24.0,0.,24.0
1979-08-06 08:08:30.430 ,5,0,0.,24.0,0.,24.0,0.,24.0,0.,24.0
1979-08-06 08:08:54.430 ,4,1,0.,24.0,0.,24.0,0.,24.0,0.,24.0
1979-08-06 08:09:18.430 ,4,0,0.,24.0,0.,24.0,0.,24.0,0.,24.0
1979-08-06 08:09:42.430 ,3,1,0.,24.0,0.,24.0,0.,24.0,0.,24.0
1979-08-06 08:10:06.430 ,3,0,0.,24.0,0.,24.0,0.,24.0,0.,24.0
1979-08-06 08:10:30.430 ,2,1,0.,24.0,0.,24.0,0.,24.0,0.,24.0
1979-08-06 08:10:54.430 ,2,0,0.,24.0,0.,24.0,0.,24.0,0.,24.0
1979-08-06 08:11:18.430 ,1,1,0.,24.0,0.,24.0,0.,24.0,0.,24.0
1979-08-06 08:11:42.430 ,1,0,0.,24.0,0.,24.0,0.,24.0,0.,24.0
1979-08-06 08:12:06.430 ,0,1,0.,24.0,0.,24.0,0.,24.0,0.,24.0
1979-08-06 08:12:30.430 ,0,0,0.,24.0,0.,24.0,0.,24.0,0.,24.0
1979-08-06 08:12:54.430 ,0,1,0.,24.0,0.,24.0,0.,24.0,0.,24.0
1979-08-06 08:13:18.430 ,0,0,0.,24.0,0.,24.0,0.,24.0,0.,24.0
1979-08-06 08:13:42.430 ,1,1,0.,24.0,0.,24.0,0.,24.0,0.,24.0
1979-08-06 08:14:06.430 ,1,0,0.,24.0,0.,24.0,0.,24.0,0.,24.0
1979-08-06 08:14:30.430 ,2,1,0.,24.0,0.,24.0,0.,24.0,0.,24.0
1979-08-06 08:14:54.430 ,2,0,0.,24.0,0.,24.0,0.,24.0,0.,24.0
1979-08-06 08:15:18.430 ,3,1,0.,24.0,0.,24.0,0.,24.0,0.,24.0
1979-08-06 08:15:42.430 ,3,0,0.,24.0,0.,24.0,0.,24.0,0.,24.0
1979-08-06 08:16:06.430 ,4,1,0.,24.0,0.,24.0,0.,24.0,0.,24.0
1979-08-06 08:16:30.430 ,4,0,0.,24.0,0.,24.0,0.,24.0,0.,24.0
1979-08-06 08:16:54.430 ,5,1,0.,24.0,0.,24.0,0.,24.0,0.,24.0
1979-08-06 08:17:18.430 ,5,0,0.,24.0,0.,24.0,0.,24.0,0.,24.0
1979-08-06 08:17:42.430 ,6,1,0.,24.0,0.,24.0,0.,24.0,0.,24.0
1979-08-06 08:18:06.430 ,6,0,0.,24.0,0.,24.0,0.,24.0,0.,24.0
1979-08-06 08:18:30.430 ,7,0,0.,24.0,0.,24.0,0.,24.0,0.,24.0
1979-08-06 08:18:54.430 ,7,0,0.,24.0,0.,24.0,0.,24.0,0.,24.0
1979-08-06 08:19:18.430 ,5,1,0.,24.0,0.,24.0,0.,24.0,0.,24.0
1979-08-06 08:19:42.430 ,1,1,0.,24.0,0.,24.0,0.,24.0,0.,24.0
1979-08-06 08:20:06.430 ,2,1,0.,24.0,0.,24.0,0.,24.0,0.,24.0
1979-08-06 08:20:30.430 ,6,1,0.,24.0,0.,24.0,0.,24.0,0.,24.0
1979-08-06 08:20:54.430 ,5,1,0.,24.0,0.,24.0,0.,24.0,0.,24.0
1979-08-06 08:21:18.430 ,1,1,0.,24.0,0.,24.0,0.,24.0,0.,24.0
1979-08-06 08:21:42.430 ,2,1,0.,24.0,0.,24.0,0.,24.0,0.,24.0
1979-08-06 08:22:06.430 ,6,1,0.,24.0,0.,24.0,0.,24.0,0.,24.0
1979-08-06 08:22:30.430 ,5,1,1.,24.0,0.,24.0,0.,24.0,0.,24.0
1979-08-06 08:22:54.430 ,1,1,0.,24.0,0.,24.0,0.,24.0,0.,24.0
1979-08-06 08:23:18.430 ,2,1,0.,24.0,0.,24.0,0.,24.0,0.,24.0
1979-08-06 08:23:42.430 ,6,1,0.,24.0,0.,24.0,0.,24.0,0.,24.0
1979-08-06 08:24:06.430 ,5,1,0.,24.0,0.,24.0,0.,24.0,0.,24.0
1979-08-06 08:24:30.430 ,1,1,0.,24.0,0.,24.0,0.,24.0,0.,24.0
1979-08-06 08:24:54.430 ,2,1,0.,24.0,0.,24.0,0.,24.0,0.,24.0
1979-08-06 08:25:18.430 ,6,1,0.,24.0,0.,24.0,0.,24.0,0.,24.0
1979-08-06 08:25:42.430 ,5,1,0.,24.0,0.,24.0,0.,24.0,0.,24.0
1979-08-06 08:26:06.430 ,1,1,0.,24.0,0.,24.0,0.,24.0,0.,24.0
1979-08-06 08:26:30.430 ,2,1,0.,24.0,0.,24.0,0.,24.0,0.,24.0
1979-08-06 08:26:54.430 ,6,1,0.,24.0,0.,24.0,0.,24.0,0.,24.0
1979-08-06 08:27:18.430 ,5,1,0.,24.0,0.,24.0,0.,24.0,0.,24.0
1979-08-06 08:27:42.430 ,1,1,0.,24.0,0.,24.0,0.,24.0,0.,24.0
1979-08-06 08:28:06.430 ,2,1,0.,24.0,0.,24.0,0.,24.0,0.,24.0
1979-08-06 08:28:30.430 ,6,1,0.,24.0,0.,24.0,0.,24.0,0.,24.0
1979-08-06 08:28:54.430 ,5,1,0.,24.0,0.,24.0,0.,24.0,0.,24.0
1979-08-06 08:29:18.430 ,1,1,0.,24.0,0.,24.0,0.,24.0,0.,24.0
1979-08-06 08:29:42.430 ,0,0,0.,24.0,0.,24.0,0.,24.0,0.,24.0
1979-08-06 08:30:06.430 ,0,0,0.,24.0,0.,24.0,0.,24.0,0.,24.0
1979-08-06 08:30:30.430 ,5,1,0.,24.0,0.,24.0,0.,24.0,0.,24.0
1979-08-06 08:30:54.430 ,5,0,0.,24.0,0.,24.0,0.,24.0,0.,24.0
1979-08-06 08:31:18.430 ,4,1,0.,24.0,0.,24.0,0.,24.0,0.,24.0
1979-08-06 08:31:42.430 ,4,0,0.,24.0,0.,24.0,0.,24.0,0.,24.0
1979-08-06 08:32:06.430 ,3,1,0.,24.0,0.,24.0,0.,24.0,0.,24.0
1979-08-06 08:32:30.430 ,3,0,0.,24.0,0.,24.0,0.,24.0,0.,24.0
1979-08-06 08:32:54.430 ,2,1,0.,24.0,0.,24.0,0.,24.0,0.,24.0
1979-08-06 08:33:18.430 ,2,0,0.,24.0,0.,24.0,0.,24.0,0.,24.0
1979-08-06 08:33:42.430 ,1,1,0.,24.0,0.,24.0,0.,24.0,0.,24.0
1979-08-06 08:34:06.430 ,1,0,0.,24.0,0.,24.0,0.,24.0,0.,24.0
1979-08-06 08:34:30.430 ,0,1,0.,24.0,0.,24.0,0.,24.0,0.,24.0